Weather History for KLWD - June, 2014

Change the Weather History Date:

Tuesday, June 17, 2014

  Actual Average Record
Temperature  
Mean Temperature 75 °F 72 °F  
Max Temperature 87 °F 81 °F 92 °F (1978)
Min Temperature 63 °F 62 °F 0 °F (2012)
Degree Days  
Heating Degree Days 0 0  
Month to date heating degree days 5 16  
Since 1 June heating degree days 5 16  
Since 1 July heating degree days 6770 6076  
Cooling Degree Days 10 7  
Month to date cooling degree days 78 87  
Year to date cooling degree days 190 141  
Since 1 June cooling degree days 78 87  
Growing Degree Days 24 (Base 50)    
Moisture  
Dew Point 68 °F    
Average Humidity 74    
Maximum Humidity 87    
Minimum Humidity 61    
Precipitation  
Precipitation 0.06 in 0.14 in 1.32 in (2001)
Month to date precipitation 7.22 3.15  
Sea Level Pressure  
Sea Level Pressure 29.82 in    
Wind  
Wind Speed 15 mph (South)    
Max Wind Speed 29 mph    
Max Gust Speed 39 mph    
Visibility 10 miles    
Events Rain    
T = Trace of Precipitation, MM = Missing Value Source: NWS Daily Summary

Daily Weather History Graph

Daily Weather History Graph

Search for Another Location

Airport or City:

Trip Planner

Search our weather history database for the weather conditions in past years. The results will help you decide how hot, cold, wet, or windy it might be!

Date:

Astronomy

Jun. 17, 2014 Rise Set
Actual Time 5:44 AM CDT 8:48 PM CDT
Civil Twilight 5:10 AM CDT 9:22 PM CDT
Nautical Twilight 4:28 AM CDT 10:04 PM CDT
Astronomical Twilight 3:38 AM CDT 10:54 PM CDT
Moon No Moon Rise 11:00 AM CDT (6/17)
Length of Visible Light 16h 11m
Length of Day
15h 04m
Waning Gibbous, 73% of the Moon is Illuminated
Jun 17
Waning Gibbous
Jun 19
Last Quarter
Jun 27
New
Jul 5
First Quarter
Jul 12
Full

Hourly Weather History & Observations

Time (CDT) Temp. Heat Index Dew Point Humidity Pressure Visibility Wind Dir Wind Speed Gust Speed Precip Events Conditions
12:53 AM 79.0 °F - 66.9 °F 66% 29.76 in 10.0 mi SSW 15.0 mph - N/A   Scattered Clouds
1:53 AM 78.1 °F - 66.9 °F 68% 29.74 in 10.0 mi SSW 20.7 mph 27.6 mph N/A   Clear
2:40 AM 75.9 °F - 66.0 °F 71% 29.86 in 10.0 mi North 18.4 mph 29.9 mph N/A   Mostly Cloudy
2:53 AM 78.1 °F - 66.0 °F 66% 29.82 in 10.0 mi Variable 3.5 mph 18.4 mph N/A   Overcast
3:19 AM 70.0 °F - 61.0 °F 73% 29.87 in 10.0 mi NNE 13.8 mph 20.7 mph N/A   Overcast
3:53 AM 68.0 °F - 60.1 °F 76% 29.86 in 10.0 mi NE 15.0 mph 19.6 mph N/A   Overcast
4:53 AM 64.0 °F - 60.1 °F 87% 29.95 in 9.0 mi NNE 12.7 mph 24.2 mph 0.01 in Rain Light Rain
5:53 AM 63.0 °F - 60.1 °F 90% 29.92 in 10.0 mi East 11.5 mph - 0.05 in   Overcast
6:53 AM 64.0 °F - 61.0 °F 90% 29.90 in 10.0 mi ESE 8.1 mph - 0.00 in   Mostly Cloudy
7:53 AM 68.0 °F - 61.0 °F 78% 29.87 in 10.0 mi SE 11.5 mph - N/A   Clear
8:53 AM 72.0 °F - 62.1 °F 71% 29.87 in 10.0 mi SE 11.5 mph - N/A   Unknown
9:53 AM 75.9 °F - 64.0 °F 67% 29.83 in 10.0 mi SSE 18.4 mph 32.2 mph N/A   Clear
10:53 AM 79.0 °F - 68.0 °F 69% 29.81 in 10.0 mi South 18.4 mph 33.4 mph N/A   Clear
11:53 AM 82.0 °F 86.3 °F 71.1 °F 69% 29.79 in 10.0 mi South 15.0 mph 27.6 mph N/A   Partly Cloudy
12:18 PM 82.9 °F 87.5 °F 71.1 °F 67% 29.82 in 10.0 mi South 20.7 mph 39.1 mph N/A   Mostly Cloudy
12:26 PM 84.0 °F 89.0 °F 71.1 °F 65% 29.82 in 10.0 mi South 21.9 mph 33.4 mph N/A   Scattered Clouds
12:53 PM 84.0 °F 89.0 °F 71.1 °F 65% 29.77 in 10.0 mi South 25.3 mph 39.1 mph N/A   Scattered Clouds
1:53 PM 84.0 °F 89.0 °F 71.1 °F 65% 29.76 in 10.0 mi South 21.9 mph 29.9 mph N/A   Overcast
2:53 PM 84.9 °F 90.7 °F 72.0 °F 65% 29.75 in 10.0 mi South 21.9 mph 33.4 mph N/A   Mostly Cloudy
3:53 PM 84.9 °F 90.7 °F 72.0 °F 65% 29.76 in 10.0 mi South 15.0 mph 31.1 mph N/A   Mostly Cloudy
4:53 PM 86.0 °F 91.5 °F 71.1 °F 61% 29.76 in 10.0 mi South 18.4 mph 29.9 mph N/A   Mostly Cloudy
5:53 PM 84.9 °F 90.7 °F 72.0 °F 65% 29.77 in 10.0 mi South 17.3 mph 25.3 mph N/A   Overcast
6:53 PM 84.0 °F 89.6 °F 72.0 °F 67% 29.77 in 10.0 mi South 17.3 mph 26.5 mph N/A   Overcast
7:53 PM 82.9 °F 87.5 °F 71.1 °F 67% 29.78 in 10.0 mi South 16.1 mph 24.2 mph N/A   Overcast
8:53 PM 82.0 °F 86.3 °F 71.1 °F 69% 29.79 in 10.0 mi South 13.8 mph - N/A   Overcast
9:53 PM 81.0 °F 84.9 °F 71.1 °F 72% 29.80 in 10.0 mi South 11.5 mph - N/A   Partly Cloudy
10:53 PM 79.0 °F - 71.1 °F 77% 29.83 in 10.0 mi South 9.2 mph - N/A   Mostly Cloudy
11:53 PM 79.0 °F - 71.1 °F 77% 29.82 in 10.0 mi South 9.2 mph 17.3 mph N/A   Scattered Clouds